+ View the NASA Portal
+ Center for Near-Earth Object Studies
IMPORTANT:
The SSD Announcement email list is now available. Major changes are coming in the near future, including possible hostname and/or URL changes. To be notified of such changes, subscribe to this email list.
Please visit
this page
for more details.
Don't show this message again
JPL Small-Body Database Browser
Search:
[
help
]
437026 (2012 TV294)
Classification:
Main-belt Asteroid
SPK-ID:
2437026
[
Ephemeris
|
Orbit Diagram
|
Orbital Elements
|
Mission Design
|
Physical Parameters
|
Discovery Circumstances
]
[ show orbit diagram ]
Orbital Elements at Epoch 2458600.5 (2019-Apr-27.0) TDB
Reference:
JPL 12
(heliocentric ecliptic J2000)
Element
Value
Uncertainty (1-sigma)
Units
e
.1369482837254987
1.0485e-07
a
2.783120103456804
5.3986e-08
au
q
2.401976581886462
3.1983e-07
au
i
14.79832367273649
1.0867e-05
deg
node
39.98880155378831
2.7954e-05
deg
peri
298.481127525811
4.4133e-05
deg
M
197.0387990009921
3.1082e-05
deg
t
p
2459368.176180276752
(2021-Jun-02.67618028)
0.00014897
TDB
period
1695.884806968951
4.64
4.9344e-05
1.351e-07
d
yr
n
.2122785689928002
6.1765e-09
deg/d
Q
3.164263625027146
6.1379e-08
au
Orbit Determination Parameters
# obs. used (total)
100
data-arc span
7419 days (20.31 yr)
first obs. used
1998-10-18
last obs. used
2019-02-09
planetary ephem.
DE431
SB-pert. ephem.
SB431-N16
condition code
0
norm. resid. RMS
.63076
source
ORB
producer
Otto Matic
solution date
2019-Jul-14 14:50:49
Additional Information
Earth MOID
= 1.43395 au
Jupiter MOID
= 2.37314 au
T_jup
= 3.270
[ show covariance matrix ]
[
Ephemeris
|
Orbit Diagram
|
Orbital Elements
|
Mission Design
|
Physical Parameters
|
Discovery Circumstances
]
Physical Parameter Table
Parameter
Symbol
Value
Units
Sigma
Reference
Notes
absolute magnitude
H
16.6
n/a
MPO386675
437026 (2012 TV294)
Discovered 1998-Oct-18 by Spacewatch at Kitt Peak
Reference:
Last Updated:
2015-06-04
[
Ephemeris
|
Orbit Diagram
|
Orbital Elements
|
Mission Design
|
Physical Parameters
|
Discovery Circumstances
]
2019-Dec-07 14:27 UT
(server date/time)
Site Manager:
Ryan S. Park
Webmaster
:
Alan B. Chamberlin